[[{"header":{"parameterUnit":"m.s-1","parameterCategory":1,"la1":30.2991,"la2":30.254,"lo1":-89.0895,"lo2":-89.0444,"dy":0.0017,"dx":0.0017,"nx":28,"ny":28,"refTime":"2024-04-23T21:00:00:Z","depth":0,"parameterNumber":2,"parameterNumberName":"U-component_of_WINDS"},"data":[0,0,0,0,0,0,0,0,0,0,0,0,0,0,0,0,0,0,0,0,0,0,0,0,0,0,0,0,0,0,0,0,0,0,0,0,0,0,0,0,0,0,0,0,0,0,0,0,0,0,0,0,0,0,0,0,0,0,-1.433,-1.4331,0,-1.4398,-1.4398,-1.4399,-1.4393,-1.4391,-1.439,-1.4389,-1.446,-1.4463,-1.4466,0,0,0,0,0,0,0,0,0,0,0,0,0,-1.4198,-1.42,-1.433,-1.4331,-1.4332,-1.4397,-1.4398,-1.4399,-1.4393,-1.4391,-1.439,-1.4389,-1.4459,-1.4462,-1.4466,0,0,0,0,0,0,0,0,0,0,0,0,0,-1.4259,-1.4201,-1.433,-1.4337,-1.4338,-1.4397,-1.4398,-1.44,-1.4393,-1.4391,-1.439,-1.4388,-1.4458,-1.4462,-1.4466,-1.4524,0,0,-1.4479,-1.4481,0,0,0,0,0,0,0,0,-1.4256,-1.4264,-1.4335,-1.4336,-1.4338,-1.4385,-1.4378,-1.4441,-1.4393,-1.4372,-1.4389,-1.4388,-1.4436,-1.4442,-1.4458,-1.4528,-1.4531,-1.448,-1.4482,-1.4484,-1.4485,0,0,0,0,0,0,0,-1.4252,-1.4261,-1.4357,-1.4336,-1.4338,-1.4337,-1.4344,-1.439,-1.4412,-1.4374,-1.4374,-1.4381,-1.4437,-1.4454,-1.446,-1.4532,-1.448,-1.4483,-1.4486,-1.4488,-1.4652,-1.4654,0,0,0,0,0,0,-1.4246,-1.4258,-1.4355,-1.4359,-1.4292,-1.434,-1.4348,-1.4371,-1.4412,-1.4416,-1.4383,-1.4381,-1.4448,-1.4455,-1.4463,-1.4533,-1.4484,-1.4488,-1.4491,-1.465,-1.4653,-1.4655,0,0,0,0,0,0,-1.4243,-1.4254,-1.4352,-1.4308,-1.4321,-1.4344,-1.4371,-1.4374,-1.4391,-1.4419,-1.4423,-1.4396,-1.4447,-1.4457,-1.4509,-1.4536,-1.449,-1.4494,-1.4648,-1.4651,-1.4654,-1.4675,0,0,0,0,0,0,-1.4239,-1.4253,-1.4275,-1.4309,-1.4323,-1.4397,-1.4372,-1.4376,-1.4398,-1.4397,-1.4432,-1.4437,-1.4446,-1.4503,-1.4513,-1.4541,-1.4497,-1.4646,-1.465,-1.4653,-1.4672,-1.4678,-1.4684,0,0,0,0,0,-1.4234,-1.4279,-1.4276,-1.4288,-1.4351,-1.4399,-1.4407,-1.4416,-1.44,-1.4423,-1.4441,-1.4436,-1.4531,-1.4508,-1.452,-1.4549,-1.4644,-1.4649,-1.4652,-1.467,-1.4677,-1.4683,0,0,0,0,0,0,-1.4249,-1.4284,-1.4281,-1.4338,-1.4365,-1.4397,-1.4426,-1.4424,-1.4457,-1.4454,-1.4465,-1.4473,-1.4526,-1.4543,-1.4517,-1.4608,-1.4586,-1.4592,-1.4595,-1.4602,-1.4608,-1.4603,-1.4501,0,0,0,0,0,-1.4258,-1.4293,-1.4322,-1.437,-1.4383,-1.4402,-1.4423,-1.4428,-1.4458,-1.4469,-1.4491,-1.452,-1.4556,-1.458,-1.4615,-1.4675,-1.4683,-1.4701,-1.4706,-1.4711,-1.4717,-1.475,-1.4758,-1.4668,-1.4668,-1.4668,0,0,-1.4279,-1.4302,-1.4324,-1.4373,-1.4395,-1.4432,-1.4412,-1.4452,-1.448,-1.4476,-1.4526,-1.4543,-1.4576,-1.4632,-1.4658,-1.4648,-1.4743,-1.4716,-1.4719,-1.4723,-1.4755,-1.4763,-1.4771,-1.4671,-1.467,-1.467,0,0,-1.4335,-1.4356,-1.4398,-1.442,-1.4453,-1.4465,-1.4475,-1.4508,-1.4519,-1.457,-1.4567,-1.4601,-1.4663,-1.4687,-1.4707,-1.4772,-1.4769,-1.4783,-1.4813,-1.4845,-1.4853,-1.4859,-1.4883,-1.4891,-1.4789,-1.4789,-1.4789,0,-1.4356,-1.4411,-1.4419,-1.446,-1.4482,-1.4479,-1.4522,-1.4543,-1.4586,-1.4602,-1.459,-1.4668,-1.469,-1.4752,-1.4768,-1.4784,-1.4797,-1.478,-1.4851,-1.4857,-1.4863,-1.4886,-1.4895,-1.4791,-1.479,-1.479,-1.479,0,-1.4436,-1.4474,-1.4504,-1.4545,-1.457,-1.4612,-1.4627,-1.4652,-1.4655,-1.4668,-1.4721,-1.4747,-1.4787,-1.4802,-1.4806,-1.4865,-1.4858,-1.4848,-1.4826,-1.4873,-1.4895,-1.4904,-1.4793,-1.4792,-1.4792,-1.4791,0,0,-1.4503,-1.4548,-1.4559,-1.4578,-1.4614,-1.4644,-1.4685,-1.4724,-1.4746,-1.4775,-1.4811,-1.4864,-1.4855,-1.4878,-1.4884,-1.4912,-1.4963,-1.4899,-1.49,-1.491,-1.503,-1.5038,-1.5047,-1.4961,-1.4962,-1.4964,-1.5028,0,-1.4563,-1.4636,-1.4645,-1.4709,-1.4745,-1.4743,-1.4779,-1.4806,-1.482,-1.4852,-1.4868,-1.4906,-1.4891,-1.4905,-1.4933,-1.4951,-1.4987,-1.4946,-1.4994,-1.4996,-1.4986,-1.5059,-1.5067,-1.5126,-1.5036,-1.5037,-1.5038,0,-1.4643,-1.4674,-1.4742,-1.4774,-1.4789,-1.4821,-1.4858,-1.4889,-1.4919,-1.4928,-1.4953,-1.4956,-1.4999,-1.4975,-1.5036,-1.5008,-1.5028,-1.504,-1.5042,-1.5047,-1.502,-1.5066,-1.5145,-1.5154,-1.5052,-1.5051,-1.505,0,-1.4686,-1.4745,-1.4794,-1.481,-1.4847,-1.487,-1.4887,-1.4916,-1.4939,-1.4971,-1.4986,-1.5023,-1.5043,-1.5072,-1.5085,-1.5066,-1.5145,-1.5122,-1.5153,-1.5153,-1.517,-1.5169,-1.5253,-1.5183,-1.5183,-1.5182,-1.5182,0,-1.4752,-1.4794,-1.4813,-1.4843,-1.489,-1.49,-1.4947,-1.4963,-1.4988,-1.5022,-1.5023,-1.5054,-1.5069,-1.5103,-1.5113,-1.5162,-1.5171,-1.5179,-1.5181,-1.5179,-1.5178,-1.5193,-1.5189,-1.5185,-1.5184,-1.5184,-1.5183,0,-1.4808,-1.4822,-1.4875,-1.4906,-1.4915,-1.4949,-1.4976,-1.5005,-1.5018,-1.5061,-1.5071,-1.5093,-1.5133,-1.5148,-1.5197,-1.5204,-1.5261,-1.5259,-1.525,-1.5251,-1.5282,-1.5279,-1.5379,-1.5393,-1.5312,-1.5313,-1.5314,0,-1.485,-1.4882,-1.4916,-1.4938,-1.4956,-1.4991,-1.5015,-1.5026,-1.505,-1.5087,-1.5112,-1.5152,-1.5184,-1.5248,-1.5269,-1.5306,-1.5306,-1.5339,-1.5312,-1.5309,-1.5307,-1.5306,-1.5309,-1.5344,-1.5345,-1.5345,-1.5346,0,-1.4922,-1.4928,-1.4961,-1.4997,-1.5024,-1.5053,-1.5081,-1.5099,-1.5115,-1.5142,-1.5183,-1.5208,-1.5258,-1.5298,-1.5336,-1.5354,-1.5353,-1.5354,-1.5364,-1.5362,-1.5355,-1.536,-1.5264,-1.5352,-1.5351,-1.5351,-1.5351,-1.535,-1.4973,-1.5001,-1.503,-1.5067,-1.5089,-1.5115,-1.5144,-1.5161,-1.5195,-1.5236,-1.524,-1.5284,-1.5314,-1.5365,-1.5385,-1.542,-1.5411,-1.5425,-1.5428,-1.5432,-1.5434,-1.5349,-1.5427,-1.5427,-1.5427,-1.5427,-1.5427,0,-1.5046,-1.5064,-1.5098,-1.5137,-1.5166,-1.5161,-1.5192,-1.5217,-1.5255,-1.5283,-1.5314,-1.5361,-1.54,-1.5423,-1.5462,-1.5485,-1.5486,-1.5495,-1.5494,-1.5498,-1.5439,-1.5428,-1.5494,-1.5494,-1.5494,-1.5494,-1.5494,-1.5494,-1.5088,-1.5136,-1.5144,-1.5203,-1.5222,-1.5264,-1.5282,-1.5306,-1.5328,-1.538,-1.5412,-1.5426,-1.5452,-1.5493,-1.5528,-1.5534,-1.5548,-1.5559,-1.5564,-1.5509,-1.5502,-1.5495,-1.5484,-1.5562,-1.5562,-1.562,-1.562,-1.5621]},{"header":{"parameterUnit":"m.s-1","parameterCategory":1,"la1":30.2991,"la2":30.254,"lo1":-89.0895,"lo2":-89.0444,"dy":0.0017,"dx":0.0017,"nx":28,"ny":28,"refTime":"2024-04-23T21:00:00:Z","depth":0,"parameterNumber":3,"parameterNumberName":"V-component_of_WINDS"},"data":[0,0,0,0,0,0,0,0,0,0,0,0,0,0,0,0,0,0,0,0,0,0,0,0,0,0,0,0,0,0,0,0,0,0,0,0,0,0,0,0,0,0,0,0,0,0,0,0,0,0,0,0,0,0,0,0,0,0,4.3351,4.3351,0,4.3424,4.3425,4.3426,4.3382,4.338,4.3378,4.3376,4.3446,4.345,4.3454,0,0,0,0,0,0,0,0,0,0,0,0,0,4.3166,4.317,4.3351,4.3352,4.3352,4.3424,4.3425,4.3426,4.3383,4.338,4.3378,4.3375,4.3445,4.3449,4.3454,0,0,0,0,0,0,0,0,0,0,0,0,0,4.3244,4.3171,4.335,4.334,4.3339,4.3424,4.3425,4.3426,4.3383,4.338,4.3377,4.3374,4.3443,4.3449,4.3455,4.3552,0,0,4.3472,4.3474,0,0,0,0,0,0,0,0,4.3239,4.325,4.334,4.3341,4.334,4.3391,4.3385,4.3468,4.3384,4.3366,4.3376,4.3373,4.343,4.3437,4.3457,4.3555,4.3558,4.3472,4.3476,4.3478,4.348,0,0,0,0,0,0,0,4.3234,4.3247,4.3379,4.3342,4.3342,4.3329,4.3336,4.3401,4.3415,4.3368,4.3365,4.3374,4.3429,4.3452,4.3458,4.3559,4.3472,4.3477,4.3481,4.3483,4.3737,4.374,0,0,0,0,0,0,4.323,4.3243,4.3377,4.3382,4.3281,4.3335,4.3343,4.3378,4.3414,4.3416,4.3377,4.3372,4.3443,4.3452,4.3461,4.3574,4.3478,4.3484,4.3487,4.3734,4.3738,4.3742,0,0,0,0,0,0,4.3227,4.3243,4.3374,4.3312,4.3327,4.3341,4.338,4.3381,4.3403,4.3421,4.3422,4.3398,4.3441,4.3453,4.3529,4.3576,4.3486,4.3491,4.373,4.3735,4.374,4.3804,0,0,0,0,0,0,4.3221,4.3242,4.328,4.3313,4.3331,4.3444,4.3383,4.3385,4.3414,4.3408,4.3441,4.3443,4.344,4.3521,4.3535,4.3582,4.3496,4.3726,4.3732,4.3738,4.3798,4.3811,4.3822,0,0,0,0,0,4.3215,4.3295,4.3283,4.3299,4.338,4.3447,4.3457,4.3453,4.3418,4.3455,4.3466,4.3442,4.3569,4.3529,4.3544,4.3594,4.3723,4.3731,4.3738,4.3792,4.3808,4.3822,0,0,0,0,0,0,4.3267,4.3299,4.3286,4.3379,4.3411,4.3439,4.3487,4.347,4.3511,4.3503,4.3495,4.3503,4.3582,4.3596,4.3551,4.3689,4.364,4.3651,4.3677,4.3692,4.3703,4.3697,4.3501,0,0,0,0,0,4.3289,4.3343,4.3368,4.3447,4.3464,4.3473,4.3502,4.3496,4.3527,4.354,4.3557,4.3586,4.3632,4.3663,4.3707,4.38,4.3805,4.3842,4.3854,4.3864,4.3872,4.3919,4.3935,4.3766,4.3766,4.3766,0,0,4.3336,4.336,4.3394,4.3458,4.3482,4.3535,4.3484,4.3543,4.3581,4.3548,4.3621,4.3635,4.3667,4.3751,4.3789,4.3765,4.392,4.3873,4.3881,4.3884,4.3929,4.3945,4.3959,4.3771,4.377,4.377,0,0,4.3447,4.3473,4.354,4.3565,4.3602,4.3607,4.3623,4.3654,4.3662,4.3736,4.3711,4.3756,4.3837,4.386,4.3882,4.4001,4.3979,4.4016,4.4077,4.4123,4.4136,4.4148,4.4187,4.4202,4.4025,4.4025,4.4025,0,4.35,4.358,4.3577,4.3637,4.3665,4.3639,4.3706,4.3729,4.3778,4.3796,4.3769,4.3869,4.3889,4.3977,4.4006,4.4026,4.4042,4.4011,4.4135,4.4147,4.4158,4.4195,4.421,4.4029,4.4028,4.4028,4.4028,0,4.3641,4.3698,4.3748,4.3796,4.3829,4.3893,4.3897,4.393,4.3922,4.3929,4.4002,4.4026,4.4073,4.4093,4.4085,4.418,4.4163,4.4136,4.4087,4.4178,4.4212,4.4227,4.4035,4.4033,4.4032,4.4031,0,0,4.3787,4.3832,4.385,4.3871,4.3909,4.3951,4.4012,4.4059,4.4086,4.4121,4.4169,4.4238,4.4212,4.4238,4.4232,4.4273,4.4361,4.424,4.424,4.4259,4.4463,4.4481,4.4498,4.4348,4.4351,4.4353,4.4459,0,4.3898,4.4006,4.4004,4.4103,4.4153,4.4129,4.4181,4.4209,4.4217,4.4258,4.4267,4.4314,4.4279,4.4293,4.4333,4.4342,4.4402,4.4335,4.439,4.4392,4.438,4.4517,4.4537,4.4637,4.4473,4.4476,4.4477,0,4.4043,4.4082,4.4187,4.4215,4.4236,4.4283,4.4325,4.4366,4.4396,4.4398,4.4427,4.4414,4.4472,4.4423,4.4503,4.4457,4.448,4.4487,4.4491,4.4494,4.4438,4.4521,4.4668,4.4682,4.4499,4.4497,4.4496,0,4.4134,4.4214,4.4286,4.4304,4.434,4.4373,4.439,4.4417,4.4444,4.448,4.4497,4.454,4.4562,4.4594,4.4591,4.4556,4.4671,4.4622,4.4672,4.4672,4.4695,4.4693,4.4846,4.4715,4.4714,4.4714,4.4714,0,4.4257,4.4321,4.4327,4.4371,4.4441,4.4437,4.4506,4.4518,4.4542,4.4586,4.4568,4.4609,4.4605,4.4646,4.4645,4.4709,4.472,4.4721,4.472,4.4722,4.4721,4.4734,4.4726,4.4718,4.4717,4.4716,4.4716,0,4.4371,4.4378,4.4454,4.4482,4.449,4.454,4.4562,4.4603,4.4609,4.4665,4.4678,4.4687,4.4734,4.4736,4.479,4.4789,4.4866,4.4858,4.4856,4.4854,4.4902,4.4897,4.5067,4.5088,4.4945,4.4947,4.4948,0,4.4448,4.4497,4.453,4.4558,4.4577,4.4623,4.4651,4.4649,4.4678,4.4715,4.475,4.4796,4.4832,4.4908,4.4918,4.4958,4.4949,4.5006,4.4955,4.4955,4.4947,4.4943,4.4946,4.5015,4.5017,4.5018,4.5019,0,4.4583,4.4583,4.4626,4.4669,4.4703,4.4736,4.4767,4.4791,4.4792,4.4825,4.4874,4.4902,4.4957,4.5001,4.504,4.5054,4.5036,4.5036,4.5049,4.505,4.5046,4.5046,4.488,4.5031,4.503,4.5029,4.5028,4.5028,4.4679,4.472,4.4749,4.4795,4.4818,4.4847,4.4886,4.4897,4.4938,4.4983,4.4979,4.5032,4.5057,4.5108,4.5126,4.5165,4.5145,4.5165,4.517,4.5174,4.5178,4.5042,4.5173,4.5172,4.5172,4.5172,4.5171,0,4.481,4.4827,4.487,4.4914,4.495,4.4932,4.4965,4.4995,4.5043,4.5069,4.5105,4.5159,4.5202,4.5215,4.5256,4.5285,4.5277,4.5295,4.5292,4.5294,4.5195,4.5178,4.53,4.53,4.53,4.53,4.53,4.53,4.4882,4.495,4.4953,4.5031,4.5047,4.51,4.512,4.5145,4.5166,4.5228,4.5263,4.5273,4.5293,4.5335,4.5372,4.5374,4.5389,4.541,4.5409,4.5315,4.5302,4.5289,4.5273,4.5414,4.5414,4.5505,4.5506,4.5506]}]]